Lexington Weather

Lexington, Massachusetts, USA

46°F
10/22/2019 2:00am 
  • Lexington Conditions: Few Clouds
  • Temperature: 46.0°F / 7.8°CWarmer 0.5°F than last hour.
  • Dew Point: 44.4°FIncreased 1.4°Fsince last hour.
  • Relative Humidity: 94%Increased 3.0% since last hour.
  • Wind: Calm, 10-min avg: Calm, gust: None
  • Barometer: 30.12 in Steady
  • Visibility: 10 miles
  • Rain Today: 0.00 in
  •   

Regional Weather Roundup
for Boston, MA

        
000
ASUS41 KBOX 200410
RWRBOX

REGIONAL WEATHER ROUNDUP
NATIONAL WEATHER SERVICE BOSTON/NORTON MA
1200 AM EDT SUN OCT 20 2019

NOTE:  "FAIR" INDICATES FEW OR NO CLOUDS BELOW 12,000 FEET WITH NO 
SIGNIFICANT WEATHER AND/OR OBSTRUCTIONS TO VISIBILITY.

MAZALL-200500-
EASTERN MASSACHUSETTS
  
CITY           SKY/WX    TMP DP  RH WIND       PRES   REMARKS
BOSTON         FAIR      51  37  58 NW5       30.06R                  
BEVERLY        FAIR      39  36  89 CALM      30.05R                  
LAWRENCE       FAIR      39  36  89 S3        30.07R                  
BEDFORD        FAIR      40  34  79 CALM      30.05R                  
BLUE HILL      NOT AVBL                                               
NORWOOD        FAIR      37  32  82 CALM      30.06R                  
MARSHFIELD     FAIR      41  39  93 CALM      30.05S                  
PLYMOUTH       FAIR      38  36  92 CALM      30.05S                  
TAUNTON        FAIR      35  33  92 CALM      30.05S FOG              
NEW BEDFORD    FAIR      38  35  89 CALM      30.05R                  
$$

MAZALL-200500-
CAPE COD AND THE ISLANDS
  
CITY           SKY/WX    TMP DP  RH WIND       PRES   REMARKS
FALMOUTH       NOT AVBL                                               
HYANNIS        FAIR      39  35  86 CALM      30.04S                  
CHATHAM        NOT AVBL                                               
PROVINCETOWN   FAIR      39  38  96 S3          N/A                   
NANTUCKET      FAIR      42  39  89 W3        30.06R                  
MARTHAS VNYRD  FAIR      33  31  92 CALM      30.06R                  
$$
 
MAZALL-200500-
CENTRAL AND WESTERN MASSACHUSETTS
  
CITY           SKY/WX    TMP DP  RH WIND       PRES   REMARKS
WORCESTER      FAIR      45  35  68 N3        30.04R                  
FITCHBURG      FAIR      39  35  86 CALM      30.07R                  
ORANGE         FAIR      35  33  92 CALM      30.07R                  
SPRINGFIELD    FAIR      35  34  95 N3        30.04S                  
WESTFIELD      FAIR      37  34  89 CALM      30.05R                  
NORTH ADAMS    FAIR      33  30  88 CALM      30.06S                  
PITTSFIELD     FAIR      34  31  88 CALM      30.03S                  
$$
 
RIZALL-200500-
RHODE ISLAND
  
CITY           SKY/WX    TMP DP  RH WIND       PRES   REMARKS
PROVIDENCE     FAIR      43  40  89 CALM      30.06R                  
NEWPORT        FAIR      43  40  89 CALM      30.05R                  
BLOCK ISLAND   FAIR      48  44  86 W6        30.06S                  
SMITHFIELD     FAIR     N/A N/A N/A CALM      30.05S                  
WESTERLY       FAIR      43  41  93 CALM      30.06S                  
$$
 
CTZALL-200500-
CONNECTICUT
  
CITY           SKY/WX    TMP DP  RH WIND       PRES   REMARKS
BRADLEY INTL   FAIR      40  34  79 CALM      30.05R                  
HARTFORD       FAIR      43  41  93 CALM      30.06R                  
BRIDGEPORT     FAIR      48  43  82 CALM      30.05S                  
DANBURY        FAIR      38  36  92 CALM      30.06R                  
GROTON         FAIR      43  41  93 N3        30.05S                  
NEW HAVEN      FAIR      43  39  86 N3        30.05S                  
CHESTER        FAIR      48  41  76 CALM      30.05S                  
MERIDEN        FAIR      39  37  92 CALM      30.06R                  
WILLIMANTIC    FAIR      36  34  92 CALM      30.07R                  
OXFORD         FAIR      40  37  89 CALM      30.05S                  
$$

MEZ002-015-021-024-NHZ003-005-008-011-012-014-VTZ005-008-200500-
NORTHERN NEW ENGLAND
  
CITY           SKY/WX    TMP DP  RH WIND       PRES   REMARKS
PORTLAND ME    FAIR      40  33  76 CALM      30.05S                  
BANGOR ME      FAIR      37  33  85 CALM      30.04S                  
CONCORD NH     FAIR      31  29  92 S3        30.06R                  
MANCHESTER NH  FAIR      40  36  86 CALM      30.04R                  
NASHUA NH      FAIR      37  37 100 CALM      30.07R                  
PORTSMOUTH NH  PTCLDY    39  37  90 W3        30.04R                  
JAFFREY NH     FAIR      33  31  92 CALM      30.05R                  
KEENE NH       FAIR      32  32 100 CALM      30.08R                  
BURLINGTON VT  FAIR      38  34  85 E5        30.04F                  
MT. WASHINGTON PTCLDY    36  10  35 NW22        N/A  WCI  24          
$$

NYZ052-076-200500-
EASTERN NEW YORK
  
CITY           SKY/WX    TMP DP  RH WIND       PRES   REMARKS
ALBANY         FAIR      40  35  83 N3        30.06R                  
NEW YORK CITY  MOCLDY    56  37  49 S6        30.04S                  
$$
 
ANZALL-200500-
MARINE OBSERVATIONS
  
STATION/POSITION TIME  TEMP    WIND        PRES    VSBY  WAVE
                       AIR SEA DIR/SP/G                  HT/PER
                 (UTC) (F)     (DEG/KT/KT) (MB)    (MI)  (FT/S)
BOSTON BUOY      0350   54 56  260/  6/  6 1016.8R         1/ 9
BUZZARDS BAY     0300   56     290/  8/  8 1017.8R
NANTUCKET SOUND  0340      56                N/A           1
MASS BAY-STELLWA NOT AVBL
ISLE OF SHOALS   0300   52      10/  9/ 10 1016.7R
S OF BLOCK IS    0330      60                N/A           2/ 4
$$

......................KEY.........................
  SKY/WX - SKY CONDITION/PRESENT WEATHER
  TMP    - TEMPERATURE IN FAHRENHEIT
  DWPT   - DEWPOINT IN FAHRENHEIT
  RH     - RELATIVE HUMIDITY IN PERCENT
  WIND   - DIRECTION AND SPEED IN MPH
  PRES   - MEAN SEA LEVEL PRESSURE IN INCHES OF HG
  WCI    - WIND CHILL INDEX
  VSB    - VISIBILITY IN MILES
  HX     - HEAT INDEX
  TC     - TEMPERATURE IN CELSIUS
  VRB    - VARIABLE WIND DIRECTION
  N/A    - NOT AVAILABLE
  
      

Other recent Regional Weather Roundups

Tue Oct 22, 1:10am

Tue Oct 22, 1:00am

Tue Oct 22, 12:10am

Tue Oct 22, 12:00am

Mon Oct 21, 11:10pm

Mon Oct 21, 11:00pm

Mon Oct 21, 10:10pm

Mon Oct 21, 10:01pm

Mon Oct 21, 9:10pm

Mon Oct 21, 9:00pm

Mon Oct 21, 8:10pm

Mon Oct 21, 8:00pm

Mon Oct 21, 7:10pm

Mon Oct 21, 7:01pm

Mon Oct 21, 6:10pm

Mon Oct 21, 6:01pm

Mon Oct 21, 5:10pm

Mon Oct 21, 5:01pm

Mon Oct 21, 4:10pm

Mon Oct 21, 4:00pm

Mon Oct 21, 3:10pm

Mon Oct 21, 3:01pm

Mon Oct 21, 2:10pm

Mon Oct 21, 2:00pm

Mon Oct 21, 1:10pm

Mon Oct 21, 1:01pm

Mon Oct 21, 12:10pm

Mon Oct 21, 12:00pm

Mon Oct 21, 11:10am

Mon Oct 21, 11:00am

Mon Oct 21, 10:10am

Mon Oct 21, 10:00am

Mon Oct 21, 9:10am

Mon Oct 21, 9:00am

Mon Oct 21, 7:10am

Mon Oct 21, 7:00am

Mon Oct 21, 6:10am

Mon Oct 21, 6:00am

Mon Oct 21, 5:10am

Mon Oct 21, 5:00am

Mon Oct 21, 4:10am

Mon Oct 21, 4:00am

Mon Oct 21, 3:10am

Mon Oct 21, 3:00am

Mon Oct 21, 2:10am

Mon Oct 21, 2:01am

Mon Oct 21, 1:10am

Mon Oct 21, 1:00am

Mon Oct 21, 12:10am

Mon Oct 21, 12:00am

Sun Oct 20, 11:10pm

Sun Oct 20, 11:00pm

Sun Oct 20, 10:10pm

Sun Oct 20, 10:00pm

Sun Oct 20, 9:10pm

Sun Oct 20, 9:01pm

Sun Oct 20, 8:10pm

Sun Oct 20, 8:00pm

Sun Oct 20, 7:10pm

Sun Oct 20, 7:01pm

Sun Oct 20, 6:10pm

Sun Oct 20, 6:00pm

Sun Oct 20, 5:10pm

Sun Oct 20, 5:00pm

Sun Oct 20, 4:10pm

Sun Oct 20, 4:00pm

Sun Oct 20, 3:10pm

Sun Oct 20, 3:00pm

Sun Oct 20, 2:10pm

Sun Oct 20, 2:01pm

Sun Oct 20, 1:10pm

Sun Oct 20, 1:01pm

Sun Oct 20, 12:10pm

Sun Oct 20, 12:00pm

Sun Oct 20, 11:10am

Sun Oct 20, 11:00am

Sun Oct 20, 10:10am

Sun Oct 20, 10:00am

Sun Oct 20, 9:10am

Sun Oct 20, 9:00am

Sun Oct 20, 8:10am

Sun Oct 20, 8:00am

Sun Oct 20, 7:10am

Sun Oct 20, 7:00am

Sun Oct 20, 6:10am

Sun Oct 20, 6:00am

Sun Oct 20, 5:10am

Sun Oct 20, 5:00am

Sun Oct 20, 4:10am

Sun Oct 20, 4:00am

Sun Oct 20, 3:10am

Sun Oct 20, 3:00am

Sun Oct 20, 2:10am

Sun Oct 20, 2:00am

Sun Oct 20, 1:10am

Sun Oct 20, 1:00am

Sun Oct 20, 12:00am

Sat Oct 19, 11:10pm

Sat Oct 19, 11:00pm

Sat Oct 19, 10:10pm

Sat Oct 19, 10:00pm

Sat Oct 19, 9:10pm

Sat Oct 19, 9:00pm

Sat Oct 19, 8:10pm

Sat Oct 19, 8:00pm

Sat Oct 19, 7:10pm

Sat Oct 19, 7:00pm

Sat Oct 19, 6:10pm

Sat Oct 19, 6:00pm

Sat Oct 19, 5:10pm

Sat Oct 19, 5:00pm

Sat Oct 19, 4:10pm

Sat Oct 19, 4:00pm

Sat Oct 19, 3:10pm

Sat Oct 19, 3:01pm

Sat Oct 19, 2:10pm

Sat Oct 19, 2:00pm

Sat Oct 19, 1:10pm

Sat Oct 19, 1:01pm

Sat Oct 19, 12:10pm

Sat Oct 19, 12:00pm

Sat Oct 19, 11:10am

Sat Oct 19, 11:01am

Sat Oct 19, 10:10am

Sat Oct 19, 10:00am

Sat Oct 19, 9:10am

Sat Oct 19, 9:00am

Sat Oct 19, 8:10am

Sat Oct 19, 8:00am

Sat Oct 19, 7:10am

Sat Oct 19, 7:00am

Sat Oct 19, 6:10am

Sat Oct 19, 6:00am

Sat Oct 19, 5:10am

Sat Oct 19, 5:00am

Sat Oct 19, 4:10am

Sat Oct 19, 4:00am

Sat Oct 19, 3:10am

Sat Oct 19, 3:00am

Sat Oct 19, 2:10am

Sat Oct 19, 2:00am

Meta data:

ID: f2b8acb3-4631-416e-a755-0e6a364f6166
Link: https://api.weather.gov/products/f2b8acb3-4631-416e-a755-0e6a364f6166